Regional Weather Roundup
Issued by NWS

Home | Current Version | Previous Version | Graphics & Text | Print | Product List | Glossary On
Versions: 1 2 3 4 5 6 7 8 9 10 11 12 13 14 15 16 17 18 19 20 21 22 23 24 25 26 27 28 29 30 31 32 33 34 35 36 37 38 39 40 41 42 43 44 45 46 47 48 49 50
000
ASUS43 KDMX 250207
RWRIA

WEATHER ROUNDUP FOR IOWA
NATIONAL WEATHER SERVICE DES MOINES IA
800 PM CST MON NOV 24 2014

NOTE: "FAIR" INDICATES FEW OR NO CLOUDS BELOW 12,000 FEET WITH NO
SIGNIFICANT WEATHER AND/OR OBSTRUCTIONS TO VISIBILITY.

* - THESE STATIONS ARE NOT NWS STATIONS...THUS NOT UNDER NWS
QUALITY CONTROL.  THEY ALSO DO NOT REPORT WEATHER SUCH
AS PRECIPITATION OR FOG.

IAZ001>003-012>014-020>022-031>034-043>046-250300-
   NORTHWEST IOWA

CITY           SKY/WX    TMP DP  RH WIND       PRES   REMARKS
CARROLL *      CLOUDY    25  16  68 NW21G36   29.92R WCI  10
CHEROKEE *     CLEAR     23  16  74 NW15      29.94R WCI  10
DENISON *      CLOUDY    27  16  63 NW20G29   29.94R WCI  13
LE MARS *      CLEAR     23  16  74 NW13      29.99R WCI  11
ORANGE CITY *  CLEAR     23  16  74 NW17G23   29.95R WCI   9
SHELDON *      CLEAR     21  14  73 NW22      29.92R WCI   5
SIOUX CITY     CLEAR     26  15  63 NW22G28   30.00R WCI  12
SPENCER        PTCLDY    21  14  74 NW17G25   29.90R WCI   7
STORM LAKE *   CLEAR     23  14  68 NW24G30   29.91R WCI   7
$$

IAZ055>058-069>071-079>083-090>094-250300-
   SOUTHWEST IOWA

CITY           SKY/WX    TMP DP  RH WIND       PRES   REMARKS
ATLANTIC *     CLOUDY    28  18  64 NW22G30   29.95R WCI  15
AUDUBON *      CLOUDY    27  16  63 NW16G26   29.93R WCI  14
CLARINDA *     CLEAR     30  16  55 NW18G24   29.99R WCI  18
COUNCIL BLFS * CLEAR     28  16  59 N10G16    29.98R WCI  19
CRESTON *      CLOUDY    27  18  69 NW22      29.92R WCI  12
HARLAN  *      CLOUDY    27  18  69 NW23G32   29.99R WCI  12
LAMONI         CLEAR     26  20  77 W13       29.92R WCI  15
RED OAK *      PTCLDY    30  16  55 NW15G22   29.98R WCI  19
SHENANDOAH *   CLEAR     32  14  47 NW14G21   30.00R WCI  22
$$

IAZ047>049-059>061-072>074-084-250300-
   CENTRAL IOWA

CITY           SKY/WX    TMP DP  RH WIND       PRES   REMARKS
AMES           CLOUDY    24  14  65 NW25G36   29.87R WCI   8
ANKENY *       CLOUDY    27  16  63 NW20G30   29.89R WCI  13
CHARITON *     CLOUDY    28  19  69 NW17G24   29.89R WCI  16
DES MOINES     FLURRIES  28  16  60 NW24G31   29.89R WCI  14
GRINNELL*      FLURRIES  25  19  80 NW20G29   29.86R WCI  11
KNOXVILLE *    CLOUDY    27  18  69 NW20G26   29.87R WCI  13
MARSHALLTOWN   FLURRIES  23  17  78 NW22G30   29.84R WCI   8
PELLA *        CLOUDY    27  19  74 NW17G24   29.89R WCI  14
PERRY *        CLOUDY    27  18  69 NW22G30   29.91R WCI  12
$$

IAZ004>006-015-016-023>025-035-036-250300-
   NORTH CENTRAL IOWA

CITY           SKY/WX    TMP DP  RH WIND       PRES   REMARKS
ALGONA *       CLOUDY    21  14  73 NW28G35   29.86R WCI   3
CLARION *      LGT SNOW  19  16  86 NW31G37   29.84R WCI   0
ESTHERVILLE    MOCLDY    20  13  74 NW24G39   29.87R WCI   3
FORT DODGE *   CLOUDY    21  12  68 NW14G25   29.88R WCI   8
MASON CITY     LGT SNOW  16  12  84 NW23      29.82R FOG     WCI  -2
FOREST CITY *  LGT SNOW  19  16  86 NW16G26   29.82R WCI   5
IOWA FALLS *   LGT SNOW  21  18  86 W23       29.84R WCI   5
$$

IAZ007>011-017>019-026>030-037>042-050>054-066-250300-
   NORTHEAST IOWA

CITY           SKY/WX    TMP DP  RH WIND       PRES   REMARKS
CEDAR RAPIDS   CLOUDY    24  19  81 W22G28    29.81R WCI   9
CHARLES CITY * LGT SNOW  16  10  79 NW16G23   29.80R WCI   0
CLINTON *      CLOUDY    25  19  80 W17G23    29.80R WCI  11
DECORAH *      CLOUDY    16  10  79 NW13G22   29.73R WCI   2
DUBUQUE        CLOUDY    20  15  81 W21G30    29.74R WCI   4
MONTICELLO *   MIX PCPN  23  18  80 W17G25    29.78R WCI   9
OELWEIN *      FLURRIES  18  12  79 NW22      29.78R WCI   0
WATERLOO       LGT SNOW  18  14  84 NW15G30   29.81R FOG     WCI   4
$$

IAZ064-065-067-068-078-250300-
   EAST CENTRAL IOWA

CITY           SKY/WX    TMP DP  RH WIND       PRES   REMARKS
DAVENPORT      FLURRIES  26  20  77 W20       29.80R WCI  12
MT. PLEASANT * CLOUDY    28  21  74 W18G26    29.86R WCI  16
MUSCATINE *    CLOUDY    28  21  74 W18G25    29.85R WCI  16
QUAD CITIES    CLOUDY    27  21  78 W23       29.80R WCI  12
$$

IAZ062-063-075>077-085>089-095>099-250300-
   SOUTHEAST IOWA

CITY           SKY/WX    TMP DP  RH WIND       PRES   REMARKS
BURLINGTON     CLOUDY    29  23  78 W12       29.85R WCI  19
FAIRFIELD *    CLOUDY    28  21  74 W16       29.86R WCI  17
FORT MADISON * CLOUDY    30  25  80 W13G20    29.87R WCI  20
KEOKUK *       CLOUDY    30  25  80 W13       29.88R WCI  20
OSKALOOSA *    CLOUDY    28  21  74 NW26G32   29.87R WCI  13
CENTERVILLE *  MOCLDY    28  23  80 W16G23    29.90R WCI  17
OTTUMWA        CLOUDY    28  20  71 W12       29.87R WCI  18
WASHINGTON *   CLOUDY    28  25  86 W15G24    29.85R WCI  17
$$

ABBREVIATIONS USED IN REMARKS
   TC - TEMPERATURES IN CELSIUS
  WCI - WIND CHILL INDEX
   HX - HEAT INDEX
  VSB - VISIBILITY
$$




USA.gov is the U.S. government's official web portal to all federal, state and local government web resources and services.